Sigonella, Italy

12:10 PM CEST on October 01, 2016 (GMT +0200)
Sigonella Mil

Weather History for LICZ - November, 2013

Change the Weather History Date:

Tuesday, November 26, 2013

  Actual Average Record
Temperature  
Mean Temperature 48 °F -  
Max Temperature 55 °F 62 °F 75 °F (2007)
Min Temperature 41 °F 47 °F 39 °F (1998)
Degree Days  
Heating Degree Days 17    
Moisture  
Dew Point 40 °F    
Average Humidity 77    
Maximum Humidity 100    
Minimum Humidity 29    
Precipitation  
Precipitation 0.00 in - - ()
Sea Level Pressure  
Sea Level Pressure 29.84 in    
Wind  
Wind Speed 11 mph ()    
Max Wind Speed 25 mph    
Max Gust Speed -    
Visibility 7.2 miles    
Events      
Averages and records for this station are not official NWS values.
T = Trace of Precipitation, MM = Missing Value Source: Averaged Metar Reports

Daily Weather History Graph

Daily Weather History Graph

Search for Another Location

Airport or City:

Trip Planner

Search our weather history database for the weather conditions in past years. The results will help you decide how hot, cold, wet, or windy it might be!

Date:

Astronomy

Nov. 26, 2013 Rise Set
Actual Time 6:51 AM CET 4:43 PM CET
Civil Twilight 6:22 AM CET 5:12 PM CET
Nautical Twilight 5:50 AM CET 5:44 PM CET
Astronomical Twilight 5:19 AM CET 6:15 PM CET
Moon No Moon Rise 12:34 PM CET (11/26)
Length of Visible Light 10h 49m
Length of Day
9h 52m
Last Quarter, 44% of the Moon is Illuminated
Nov 26
Last Quarter
Dec 3
New
Dec 9
First Quarter
Dec 17
Full
Dec 25
Last Quarter

Hourly Weather History & Observations

Time (CET) Temp. Windchill Dew Point Humidity Pressure Visibility Wind Dir Wind Speed Gust Speed Precip Events Conditions
12:55 AM 48.2 °F - 46.4 °F 93% 29.74 in - WNW 10.4 mph - N/A   Clear
1:00 AM 47 °F - 47 °F 100% 29.77 in 12 mi WNW 10.4 mph - -  
1:55 AM 46.4 °F 41.9 °F 44.6 °F 93% 29.74 in - WNW 9.2 mph - N/A   Clear
2:55 AM 46.4 °F 41.5 °F 46.4 °F 100% 29.74 in - WNW 10.4 mph - N/A   Clear
3:55 AM 46.4 °F 41.5 °F 46.4 °F 100% 29.74 in 6.2 mi West 10.4 mph - N/A   Partly Cloudy
4:00 AM 46 °F - 46 °F 98% 29.76 in 12 mi West 10.4 mph - -   Scattered Clouds
4:55 AM 46.4 °F 41.5 °F 46.4 °F 100% 29.74 in 6.2 mi West 10.4 mph - N/A   Partly Cloudy
5:55 AM 44.6 °F 39.7 °F 44.6 °F 100% 29.77 in 6.2 mi WSW 9.2 mph - N/A   Partly Cloudy
6:55 AM 48.2 °F - 44.6 °F 87% 29.77 in 6.2 mi West 17.3 mph - N/A   Partly Cloudy
7:00 AM 48 °F - 45 °F 86% 29.78 in 16 mi West 17.3 mph - -   Scattered Clouds
7:55 AM 50.0 °F - 37.4 °F 62% 29.77 in - West 18.4 mph - N/A   Clear
8:55 AM 53.6 °F - 32.0 °F 44% 29.80 in 6.2 mi West 17.3 mph - N/A   Partly Cloudy
9:55 AM 55.4 °F - 32.0 °F 41% 29.80 in 6.2 mi NW 13.8 mph - N/A   Scattered Clouds
10:00 AM 55 °F - 32 °F 29% 29.81 in 6 mi NW 13.8 mph - -   Partly Cloudy
10:55 AM 55.4 °F - 30.2 °F 38% 29.80 in 6.2 mi WNW 25.3 mph - N/A   Scattered Clouds
11:55 AM 53.6 °F - 35.6 °F 51% 29.80 in 6.2 mi NW 18.4 mph - N/A   Scattered Clouds
1:55 PM 55.4 °F - 33.8 °F 44% 29.83 in 6.2 mi NW 17.3 mph - N/A   Scattered Clouds
2:55 PM 53.6 °F - 32.0 °F 44% 29.83 in 6.2 mi WNW 20.7 mph - N/A   Scattered Clouds
4:55 PM 48.2 °F - 37.4 °F 66% 29.89 in 6.2 mi West 10.4 mph - N/A   Mostly Cloudy
5:55 PM 46.4 °F 41.5 °F 39.2 °F 76% 29.89 in 6.2 mi West 10.4 mph - N/A   Scattered Clouds
6:55 PM 44.6 °F 39.7 °F 37.4 °F 76% 29.92 in 6.2 mi West 9.2 mph - N/A   Partly Cloudy
7:00 PM 45 °F - 38 °F 67% 29.94 in 6 mi West 9.2 mph - -   Scattered Clouds
7:55 PM 44.6 °F 39.7 °F 39.2 °F 81% 29.95 in 6.2 mi West 9.2 mph - N/A   Partly Cloudy
8:55 PM 42.8 °F 39.3 °F 41.0 °F 93% 29.95 in 6.2 mi West 5.8 mph - N/A   Partly Cloudy
9:55 PM 41.0 °F 36.4 °F 41.0 °F 100% 29.98 in - West 6.9 mph - N/A   Clear
10:00 PM 42 °F - 40 °F 92% 29.98 in 6 mi West 6.9 mph - -  
10:55 PM 41.0 °F 35.8 °F 41.0 °F 100% 29.98 in - West 8.1 mph - N/A   Clear
11:55 PM 41.0 °F 35.2 °F 39.2 °F 93% 29.98 in - West 9.2 mph - N/A   Clear